Regional Weather Roundup
Issued by NWS

Home | Current Version | Previous Version | Graphics & Text | Print | Product List | Glossary Off
Versions: 1 2 3 4 5 6 7 8 9 10 11 12 13 14 15 16 17 18 19 20 21 22 23 24 25 26 27 28 29 30 31 32 33 34 35 36 37 38 39 40 41 42 43 44 45 46 47 48 49 50

000
ASUS43 KDTX 240810
RWRMI
MICHIGAN HOURLY REGIONAL WEATHER ROUNDUP
NATIONAL WEATHER SERVICE DETROIT/PONTIAC MI
400 AM EDT THU MAY 24 2018

NOTE: "FAIR" INDICATES FEW OR NO CLOUDS BELOW 12,000 FEET WITH NO
SIGNIFICANT WEATHER AND/OR OBSTRUCTION TO VISIBILITY.

MIZ047>049-052>055-059>063-066>070-074>076-081>083-240900-
SOUTHEAST LOWER MICHIGAN

CITY           SKY/WX    TMP DP  RH WIND       PRES   REMARKS
ADRIAN         FAIR      56  55  97 CALM      30.21S
ALMA           FAIR      53  52  99 CALM      30.20S
ANN ARBOR      FAIR      50  50 100 CALM      30.20S
BAD AXE        FAIR      49  48  95 CALM      30.19S
CARO           FAIR      49  48  96 CALM      30.19S
DETROIT CITY   FAIR      57  51  80 CALM      30.19S
DETROIT        FAIR      61  51  70 CALM      30.20S
FLINT          FAIR      51  50  96 CALM      30.20S
GROSSE ILE     FAIR      55  53  92 NW3       30.19S
HILLSDALE      FAIR      54  50  87 CALM      30.21S
HOWELL         FAIR      52  50  93 CALM      30.21S

CITY           SKY/WX    TMP DP  RH WIND       PRES   REMARKS
JACKSON        FAIR      52  51  97 SW3       30.21S
LAMBERTVILLE   FAIR      55  52  88 CALM      30.20S
LANSING        FAIR      54  52  93 CALM      30.20F
LAPEER         FAIR      48  48  97 CALM      30.20F
MASON          FAIR      54  52  93 CALM      30.21S
MONROE         FAIR      54  52  93 CALM      30.19S
MT. CLEMENS    FAIR      54  54 100 CALM      30.18S
PONTIAC        FAIR      55  54  96 CALM      30.19F
PORT HOPE        N/A     61  52  72 SW7       30.15S
PORT HURON     FAIR      46  45  93 CALM      30.20S FOG
TRI CITIES     FAIR      63  53  70 CALM      30.19S
MIDLAND        FAIR      53  52  97 CALM      30.18F
TROY           FAIR      62  51  67 W3        30.21F
SAGINAW HB     FAIR      55  50  82 CALM      30.18S
$$
MIZ043>046-050>051-056>058-064>065-071>073-077>080-240900-
SOUTHWEST LOWER MICHIGAN

CITY           SKY/WX    TMP DP  RH WIND       PRES   REMARKS
BATTLE CREEK   FAIR      53  52  96 S6        30.21S
BENTON HARBOR  FAIR      52  49  89 CALM      30.18S
BIG RAPIDS     FAIR      50  48  92 CALM      30.19S
COLDWATER      FOG       54  54 100 CALM      30.21S VSB 3/4
FREMONT        FOG       53  53 100 CALM      30.18S VSB 1/2
HOLLAND        FAIR      54  53  97 CALM      30.19S FOG
GRAND RAPIDS   FAIR      53  52  96 SE6       30.19S
IONIA          FAIR      56  51  83 CALM      30.19S
KALAMAZOO      FAIR      57  55  93 S5        30.20S FOG
LUDINGTON      FAIR      46  46 100 CALM      30.17S
MARSHALL       FAIR      55  53  95 CALM      30.21S
MOUNT PLEASANT FAIR      56  55  98 CALM      30.19S
MUSKEGON       FAIR      53  49  86 CALM      30.18F
SOUTH HAVEN    FAIR      53  51  94 CALM      30.18F
$$
MIZ016>042-240900-
NORTHERN LOWER MICHIGAN

CITY           SKY/WX    TMP DP  RH WIND       PRES   REMARKS
ALPENA         FAIR      50  49  96 W3        30.17S
BEAVER ISLAND  FAIR      59  42  52 S6        30.15F
BELLAIRE         N/A     47  47  97 CALM      30.18F FOG
CADILLAC       FAIR      46  45  98 CALM      30.19F FOG
CHARLEVOIX     FAIR      51  51 100 SE3       30.20S
FRANKFORT      FAIR      51  51 100 CALM      30.18S
GAYLORD        FAIR      52  52 100 CALM      30.19S
GRAYLING       FAIR      49  48  95 CALM      30.18F
HARBOR SPRINGS FAIR      49  49  99 CALM      30.17F
HOUGHTON LAKE  FAIR      53  50  89 CALM      30.20F
MANISTEE       FAIR      48  48 100 E3        30.17F
OSCODA         FAIR      52  45  77 CALM      30.16S
PELLSTON       FAIR      48  46  93 CALM      30.17S
ROGERS CITY    FAIR      50  47  88 CALM      30.17S
TRAVERSE CITY  FAIR      51  48  89 CALM      30.16F
$$
MIZ007>008-015-240900-
EASTERN UPPER MICHIGAN

CITY           SKY/WX    TMP DP  RH WIND       PRES   REMARKS
KINROSS        FAIR      53  51  93 SW7       30.15F
MACKINAC ISLAN FAIR      50  50 100 W10       30.16F FOG
NEWBERRY       FAIR      47  46  97 S6        30.14F
S. S. MARIE    FAIR      53  49  86 NE5       30.14S
MUNISING         N/A     63  56  78 S12       30.09F
$$
MIZ004>006-011>014-085-240900-
CENTRAL UPPER MICHIGAN

CITY           SKY/WX    TMP DP  RH WIND       PRES   REMARKS
MANISTIQUE     FAIR      43  42  95 SE3       30.14S
ESCANABA       FAIR      50  49  96 CALM      30.13F
MENOMINEE      FAIR      62  55  77 CALM      30.14S
SAWYER-GWINN   FAIR      55  48  78 CALM      30.12S
$$
MIZ001>003-009>011-084-240900-
WESTERN UPPER MICHIGAN

CITY           SKY/WX    TMP DP  RH WIND       PRES   REMARKS
IRON MOUNTAIN  FAIR      58  55  90 CALM      30.12S
HOUGHTON       FAIR      59  46  62 CALM      30.08F
COPPER HARBOR    N/A     55  44  66 VRB3      30.06F
$$

ABBREVIATIONS USED IN REMARKS
   TC - TEMPERATURE IN CELSIUS
  WCI - WIND CHILL INDEX
   HX - HEAT INDEX
  VSB - VISIBILITY





USA.gov is the U.S. government's official web portal to all federal, state and local government web resources and services.